Regional Weather Roundup
Issued by NWS Sterling, VA

Home | Current Version | Previous Version | Graphics & Text | Print | Product List | Glossary On
Versions: 1 2 3 4 5 6 7 8 9 10 11 12 13 14 15 16 17 18 19 20 21 22 23 24 25 26 27 28 29 30 31 32 33 34 35 36 37 38 39 40 41 42 43 44 45 46 47 48 49 50
000
ASUS41 KLWX 230411
RWRLWX

REGIONAL WEATHER ROUNDUP
NATIONAL WEATHER SERVICE BALTIMORE MD/WASHINGTON DC
1200 AM EDT SAT SEP 23 2017

Note: "FAIR" indicates few or no clouds below 12,000 feet
with no significant weather and/or obstructions to visibility.
 TC=TEMPERATURE CELSIUS

 * =Non NWS site. Station does not report precipitation (e.g. rain,
    snow, etc.), thunder, or fog.

DCZ001-MDZ009-015-VAZ040>042-051-053>054-230500-
WASHINGTON METRO

CITY           SKY/WX    TMP DP  RH WIND       PRES   REMARKS
WASHINGTON NAT MOCLDY    73  67  81 CALM      30.02S
DULLES         CLOUDY    64  63  96 CALM      30.04S
ANDREWS AFB    PTCLDY    65  63  93 N3        30.01F
FT BELVOIR     CLOUDY    65  64  96 CALM      30.02S
QUANTICO       PTCLDY    69  68  96 NW9       30.03S
COLLEGE PARK*  CLOUDY    64  63  97 CALM      30.02S
LEESBURG*      PTCLDY    66  66 100 CALM      30.05S
MANASSAS*      FOG       63  62  97 CALM      30.04S VSB 1/2
GAITHERSBURG*  CLOUDY    64  60  87 VRB3      30.05S

$$

MDZ006>007-011-014-230500-
BALTIMORE METRO

CITY           SKY/WX    TMP DP  RH WIND       PRES   REMARKS
BWI AIRPORT    MOCLDY    63  63 100 W5        30.01S
MD SCIENCE CTR   N/A     77  55  46 MISG      30.02R
MARTIN STATE   CLEAR     66  61  82 CALM      30.02S
ANNAPOLIS      PTCLDY    72  69  90 CALM      30.00F
FORT MEADE*    CLOUDY    61  59  94 CALM      30.04S

$$

MDZ012-015-019>023-230500-
MARYLAND EASTERN SHORE

CITY           SKY/WX    TMP DP  RH WIND       PRES   REMARKS
OCEAN CITY     MOCLDY    68  64  87 NW6       29.98F
SALISBURY      PTCLDY    67  65  93 NW3       29.98F
CAMBRIDGE*     CLEAR     64  64 100 CALM      30.00S
EASTON*        CLEAR     71  65  81 CALM      30.04S

$$

MDZ017>025-230500-
SOUTHERN MARYLAND

CITY           SKY/WX    TMP DP  RH WIND       PRES   REMARKS
PATUXENT RIVER CLEAR     66  65  96 W5        30.00S
ST INIGOES     FOG       63  63 100 CALM      30.00S VSB 1
LEONARDTOWN*   PTCLDY    63  63 100 W3        30.02S

$$

MDZ003>005-230500-
NORTH CENTRAL MARYLAND

CITY           SKY/WX    TMP DP  RH WIND       PRES   REMARKS
FREDERICK*     FOG       63  63 100 CALM      30.07S VSB 3/4
HAGERSTOWN APT CLOUDY    69  60  73 NW5       30.06S
WESTMINSTER*   PTCLDY    66  59  77 CALM      30.05S

$$

MDZ501>502-230500-
WESTERN MARYLAND

CITY           SKY/WX    TMP DP  RH WIND       PRES   REMARKS
OAKLAND*       CLEAR     64  54  68 CALM      30.16R
CUMBERLAND*    CLEAR     64  59  82 CALM      30.12R

$$

VAZ025>031-230500-
SHENANDOAH VALLEY

CITY           SKY/WX    TMP DP  RH WIND       PRES   REMARKS
WINCHESTER*    MOCLDY    63  61  94 CALM      30.06S
FRONT ROYAL*   PTCLDY    63  63 100 CALM      30.06S
LURAY*         PTCLDY    63  61  94 CALM      30.07F
NEW MARKET*    CLOUDY    61  58  91 CALM      30.08S
STAUNTON*      CLOUDY    64  62  93 CALM      30.11S
WAYNESBORO*    CLOUDY    65  64  97 CALM      30.10S

$$

WVZ021-048>050-054>055-230500-
EASTERN WEST VIRGINIA PANHANDLE

CITY           SKY/WX    TMP DP  RH WIND       PRES   REMARKS
MARTINSBURG    PTCLDY    61  57  87 CALM      30.05R
PETERSBURG*    PTCLDY    64  64  97 CALM      30.09F

$$

VAZ036>039-050-230500-
CENTRAL FOOTHILLS

CITY           SKY/WX    TMP DP  RH WIND       PRES   REMARKS
CHARLOTTESVILL PTCLDY    70  68  93 CALM      30.05S
CULPEPER*      MOCLDY    67  67 100 CALM      30.04F
ORANGE*        CLOUDY    64  63  94 CALM      30.04S
GORDONSVILLE*  PTCLDY    66  66 100 CALM      30.04F
WARRENTON*     FOG       60  58  91 CALM      30.03S VSB 1/4

$$

VAZ055>057-230500-
NORTH AND CENTRAL PIEDMONT

CITY           SKY/WX    TMP DP  RH WIND       PRES   REMARKS
FREDERICKSBRG* PTCLDY    66  66 100 CALM      30.01F
STAFFORD*      PTCLDY    63  63 100 NW3       30.07S

$$

NCZ024-NYZ072-PAZ021-071-VAZ022-071-230500-
OTHER REGIONAL OBSERVATIONS

CITY           SKY/WX    TMP DP  RH WIND       PRES   REMARKS
NEW YORK CITY  CLEAR     73  55  53 VRB7      30.01S
PHILADELPHIA   MOCLDY    74  54  49 N7        30.00S
PITTSBURGH     MOCLDY    68  57  68 CALM      30.11R
ROANOKE        CLOUDY    69  64  84 CALM      30.10S
RICHMOND       PTCLDY    66  64  93 CALM      30.03R
RALEIGH        MOCLDY    70  66  87 NE3       30.03F

$$

ANZ530>537-230500-
MARINE OBSERVATIONS

STATION/POSITION TIME  TEMP    WIND        PRES
                       AIR SEA DIR/SP/G
                 (UTC) (F)     (DEG/KT/KT) (MB)
THOMAS PT LIGHT  0400   74 76  350/  7/  8   N/A
BALT KEY BRIDGE  0342   75     340/  6/  6 1016.1R
COVE POINT       0342   75     330/  7/  9 1016.4F
LEWISETTA        0342   71 77  280/  3/  3 1015.8F
SOLOMONS ISLAND  0342   71 76  290/  3/  4 1015.5F
PINEY POINT      0342          350/  4/  4   N/A

$$




USA.gov is the U.S. government's official web portal to all federal, state and local government web resources and services.